Find Starlink 35060

NORAD ID: 65693 Int'l Des: 2025-212 Owner: SPXS Country: US Constellation: starlink operational
LEOCIRCULAR

Aktuelle Ansicht

3D-Globus wird geladen...

Über Starlink 35060

Beschreibung wird geladen...

Nächste Überflüge

Passes for default location (London). Set your location on the main map for personalized predictions.

Höhenverlauf

Loading altitude history...

Zweizeiliger Elementsatz

1 65693U 25212T 26149.85200483 .00032583 00000-0 11071-2 0 9996
2 65693 53.1596 318.4259 0001435 73.4375 286.6783 15.30208268 39810
Epoch: 29. Mai 2026 • Age: 20 hours

Aktueller Status

Höhe 484.8 km
Geschwindigkeit 7.62 km/s
Subsatellitenpunkt -29.68°S, 28.44°E
Startdatum 21. Sept. 2025
Alter 0.6 years
Typ internet

Technische Details

Klassifizierung Payload
Masse 575.00 kg
Trockenmasse 530.00 kg
Gesamtmasse 575.00 kg
Länge 0.30 m
Durchmesser 4.10 m
Spannweite 29.00 m
Form Box + pan
Hersteller SPXS
Bus-Typ Starlink V2MO
Phasenstatus In Orbit
Besitzer/Staat SPXS/US

Most Searched